View from above orbital plane
|
View from above satellite
|
Ground track
|
The orbit data is extracted from the following two-line orbital elements,
1 00059U 60013B 21024.52590605 .00000085 00000-0 -24893-5 0 9990
2 00059 28.2477 162.6009 0189273 341.6913 17.6893 13.52982372976476
Epoch (UTC): | 24 January 2021 12:37:18 |
Eccentricity: | 0.0189273 |
inclination: | 28.2477° |
perigee height: | 920 km |
apogee height: | 1202 km |
right ascension of ascending node: | 162.6009° |
argument of perigee: | 341.6913° |
revolutions per day: | 13.52982372 |
mean anomaly at epoch: | 17.6893° |
orbit number at epoch: | 97647 |
The dashed part of the orbit path shows where the satellite is in the earth's shadow,
|
|